ISS (ZARYA) 1 25544U 98067A 26034.88863058 .00010620 00000+0 20471-3 0 9996 2 25544 51.6315 239.4484 0011129 61.8022 298.4089 15.48375417551095 CSS (TIANHE) 1 48274U 21035A 26035.16760326 .00016071 00000+0 20308-3 0 9993 2 48274 41.4675 51.9003 0006041 355.4467 4.6316 15.59165703272370 ISS (NAUKA) 1 49044U 21066A 26034.56592394 .00010230 00000+0 19757-3 0 9991 2 49044 51.6309 241.0439 0011068 60.8200 299.3894 15.48366668230442 FREGAT DEB 1 49271U 11037PF 26035.04294128 .00047148 00000+0 80335-1 0 9994 2 49271 51.6541 41.4074 0925190 342.2254 14.8141 12.37749212208529 CSS (WENTIAN) 1 53239U 22085A 26034.52706412 .00018163 00000+0 22908-3 0 9993 2 53239 41.4674 55.7893 0006164 350.4992 9.5728 15.59144861173844 CSS (MENGTIAN) 1 54216U 22143A 26034.52706412 .00018163 00000+0 22908-3 0 9994 2 54216 41.4674 55.7893 0006164 350.4992 9.5728 15.59144861158641 PROGRESS-MS 31 1 64751U 25146A 26034.56592394 .00010230 00000+0 19757-3 0 9996 2 64751 51.6309 241.0439 0011068 60.8200 299.3894 15.48366668 6759 TIANZHOU-9 1 64786U 25149A 26034.52706412 .00018163 00000+0 22908-3 0 9996 2 64786 41.4674 55.7893 0006164 350.4992 9.5728 15.59144861255305 DRAGON CRS-33 1 65304U 25186A 26034.56592394 .00010230 00000+0 19757-3 0 9995 2 65304 51.6309 241.0439 0011068 60.8200 299.3894 15.48366668 118 PROGRESS-MS 32 1 65586U 25204A 26034.56592394 .00010230 00000+0 19757-3 0 9998 2 65586 51.6309 241.0439 0011068 60.8200 299.3894 15.48366668 277 CYGNUS NG-23 1 65616U 25208A 26034.56592394 .00010230 00000+0 19757-3 0 9996 2 65616 51.6309 241.0439 0011068 60.8200 299.3894 15.48366668 226 1998-067XK 1 65731U 98067XK 26034.92476257 .00253620 00000+0 11880-2 0 9996 2 65731 51.6221 224.6488 0003532 222.6340 137.4389 15.81948553 21510 RSP-03 1 65732U 98067XL 26034.53636242 .00558295 13872-3 14023-2 0 9999 2 65732 51.6167 223.4903 0005522 250.4003 109.6408 15.95057000 21500 YOTSUBA-KULOVER 1 65941U 98067XN 26033.98479468 .00107724 00000+0 89351-3 0 9993 2 65941 51.6239 235.6577 0004246 213.0597 147.0135 15.69363652 18030 BOTAN 1 65942U 98067XP 26034.53684974 .00297373 00000+0 14400-2 0 9998 2 65942 51.6184 229.5572 0005488 236.9526 123.0949 15.81104541 18167 E-KAGAKU-1 1 65943U 98067XQ 26034.55835713 .00116123 00000+0 95941-3 0 9993 2 65943 51.6257 232.7479 0003194 229.2556 130.8164 15.69429028 18128 HRC MONOBLOCK CAMERA 1 66052U 98067XR 26034.56460488 .00046740 00000+0 59929-3 0 9992 2 66052 51.6280 237.2888 0000408 5.0318 355.0678 15.58676411 17062 HTV-X1 1 66174U 25241A 26034.56592394 .00010230 00000+0 19757-3 0 9993 2 66174 51.6309 241.0439 0011068 60.8200 299.3894 15.48366668 518 SZ-21 MODULE 1 66515U 25246C 26035.10920032 .00035951 00000+0 34330-3 0 9993 2 66515 41.4757 49.6697 0003210 273.0588 86.9886 15.66004045 12800 SHENZHOU-22 1 66645U 25272A 26034.52706412 .00018163 00000+0 22908-3 0 9999 2 66645 41.4674 55.7893 0006164 350.4992 9.5728 15.59144861267641 SOYUZ-MS 28 1 66664U 25275A 26034.88863058 .00010620 00000+0 20471-3 0 9995 2 66664 51.6315 239.4484 0011129 61.8022 298.4089 15.48375417551093 DUPLEX 1 66906U 98067XS 26035.10412035 .00032284 00000+0 49829-3 0 9992 2 66906 51.6284 237.1408 0001531 84.3291 275.7874 15.53830479 9900 1998-067XT 1 66907U 98067XT 26034.92089449 .00100800 00000+0 11898-2 0 9995 2 66907 51.6255 236.6653 0002509 183.1784 176.9194 15.60522221 9892 1998-067XU 1 66908U 98067XU 26035.11253010 .00099819 00000+0 11748-2 0 9996 2 66908 51.6254 235.6928 0002268 182.8482 177.2498 15.60602240 9924 SILVERSAT 1 66909U 98067XV 26034.96317678 .00118150 00000+0 13238-2 0 9996 2 66909 51.6261 236.1970 0002908 193.0582 167.0336 15.61798006 9905 1998-067XW 1 66910U 98067XW 26034.59036105 .00090171 00000+0 10667-2 0 9995 2 66910 51.6249 238.2042 0001115 183.9676 176.1309 15.60516015 9848 1998-067XX 1 66911U 98067XX 26033.97768564 .00107333 00000+0 11667-2 0 9998 2 66911 51.6238 240.8615 0002356 210.9723 149.1132 15.62627778 9748 1998-067XY 1 66912U 98067XY 26034.96482242 .00071942 00000+0 94008-3 0 9992 2 66912 51.6270 236.9592 0001825 145.1291 214.9821 15.57987640 9886